Location: Kaarina
(60.4167°N, 22.4167°E)
Time: 01:56:41
(UTC+03:00)

Cosmos 2360 Rocket - Pass Details

Date: 24 August 2019
Orbit: 834 x 844 km, 71.0° (Epoch: 20 September)

Event Time Altitude Azimuth Distance (km) Brightness Sun altitude
Rises 23:05:02 0° 317° (NW) 3,397 7.4 -12.8°
Reaches altitude 10° 23:07:30 10° 320° (NW) 2,461 6.1 -13.0°
Maximum altitude 23:13:08 68° 44° (NE) 903 2.4 -13.4°
Enters shadow 23:17:26 18° 125° (SE) 1,966 3.5 -13.7°
